This is the latest recevied weather packets stored in our database for station/object DL4NBA-1. If no packets are shown the sender has not sent any weather packets the latest 10 day(s).
| Time | Temp. | Humidity | Pressure | Rain* | Wind** | Luminosity | Snow |
|---|---|---|---|---|---|---|---|
| 1777907349 | 25° C | - | - | 0 mm | 0.45 m/s, 322° | - | - |
| 1777907050 | 23.89° C | - | - | 0 mm | 0.45 m/s, 347° | - | - |
| 1777906747 | 25° C | - | - | 0 mm | 0.45 m/s, 14° | - | - |
| 1777906448 | 23.33° C | - | - | 0 mm | 2.68 m/s, 6° | - | - |
| 1777906149 | 23.33° C | - | - | 0 mm | 3.58 m/s, 14° | - | - |
| 1777905549 | 22.78° C | - | - | 0 mm | 2.24 m/s, 343° | - | - |
| 1777904948 | 23.89° C | - | - | 0 mm | 2.24 m/s, 347° | - | - |
| 1777904649 | 23.89° C | - | - | 0 mm | 2.24 m/s, 314° | - | - |
| 1777904051 | 23.89° C | - | - | 0 mm | 1.34 m/s, 273° | - | - |
| 1777903749 | 24.44° C | - | - | 0 mm | 1.34 m/s, 293° | - | - |
| 1777901951 | 27.78° C | - | - | 0 mm | 0.89 m/s, 103° | - | - |
| 1777901652 | 28.33° C | - | - | 0 mm | 2.68 m/s, 150° | - | - |
| 1777901348 | 26.11° C | - | - | 0 mm | 1.34 m/s, 152° | - | - |
| 1777901049 | 27.78° C | - | - | 0 mm | 1.34 m/s, 170° | - | - |
| 1777900743 | 26.67° C | - | - | 0 mm | 1.79 m/s, 45° | - | - |
| 1777900145 | 27.22° C | - | - | 0 mm | 0.89 m/s, 17° | - | - |
| 1777899547 | 26.11° C | - | - | 0 mm | 0 m/s | - | - |
| 1777899245 | 25° C | - | - | 0 mm | 0.89 m/s, 235° | - | - |
| 1777898647 | 27.22° C | - | - | 0 mm | 0.45 m/s, 146° | - | - |
| 1777898349 | 23.89° C | - | - | 0 mm | 1.34 m/s, 134° | - | - |
| 1777897747 | 23.89° C | - | - | 0 mm | 2.68 m/s, 290° | - | - |
| 1777897448 | 23.89° C | - | - | 0 mm | 3.13 m/s, 315° | - | - |
| 1777897150 | 24.44° C | - | - | 0 mm | 0.45 m/s, 257° | - | - |
| 1777896851 | 25° C | - | - | 0 mm | 0 m/s | - | - |
| 1777896552 | 26.67° C | - | - | 0 mm | 1.34 m/s, 124° | - | - |
* Rain latest hour (hover to see other rain measurements)
** Current wind speed in m/s (hover to see current wind gust speed)